Location: Newark
(52.2121°N, 1.8547°W)
Time: 08:44:57
(UTC+00:00)

Envisat - Visible Passes

Search period start: 27 January 2020 00:00
Search period end: 06 February 2020 00:00
Orbit: 764 x 766 km, 98.1° (Epoch: 26 January)

Date Brightness Start Highest point End Pass type
(mag) Time Alt. Az. Time Alt. Az. Time Alt. Az.
27 Jan 3.9 06:37:10 10° NNE 06:42:10 52° E 06:47:08 10° S visible
27 Jan 3.3 17:57:24 10° S 18:02:27 71° WSW 18:07:34 10° NNW visible
27 Jan 6.3 19:40:39 10° WSW 19:42:27 12° W 19:44:15 10° WNW visible
28 Jan 5.3 06:00:48 10° NE 06:05:08 27° E 06:09:26 10° SSE visible
28 Jan 3.0 17:20:42 10° SSE 17:25:42 62° ENE 17:30:43 10° N visible
28 Jan 5.5 19:01:08 10° SW 19:05:09 23° W 19:09:10 10° NW visible
29 Jan 6.2 05:25:11 10° NE 05:27:52 14° E 05:30:34 10° ESE visible
29 Jan 3.1 07:02:36 10° NNE 07:07:43 84° ESE 07:12:49 10° SSW visible
29 Jan 4.3 18:23:12 10° S 18:28:04 44° W 18:32:56 10° NNW visible
30 Jan 4.4 06:25:57 10° NNE 06:30:49 43° E 06:35:39 10° S visible
30 Jan 3.1 17:46:04 10° SSE 17:51:10 85° WSW 17:56:17 10° NNW visible
30 Jan 6.1 19:28:13 10° WSW 19:30:59 15° W 19:33:45 10° NW visible
31 Jan 5.6 05:49:43 10° NE 05:53:43 23° E 05:57:41 10° SE visible
31 Jan 5.2 18:49:24 10° SSW 18:53:44 28° W 18:58:07 10° NNW visible
01 Feb 6.4 05:14:45 10° ENE 05:16:24 11° E 05:18:04 10° ESE visible
01 Feb 3.4 06:51:19 10° NNE 06:56:25 69° ESE 07:01:29 10° S visible
01 Feb 3.9 18:11:44 10° S 18:16:42 54° W 18:21:42 10° NNW visible
02 Feb 4.8 06:14:46 10° NNE 06:19:27 35° E 06:24:06 10° SSE visible
02 Feb 3.0 17:34:47 10° SSE 17:39:52 80° ENE 17:44:59 10° NNW visible
02 Feb 5.9 19:16:08 10° SW 19:19:31 18° W 19:22:56 10° NW visible
03 Feb 5.9 05:38:44 10° NE 05:42:18 19° E 05:45:50 10° SE visible
03 Feb 4.8 18:37:45 10° SSW 18:42:21 34° W 18:46:58 10° NNW visible
04 Feb 3.8 06:40:03 10° NNE 06:45:05 57° E 06:50:05 10° S visible
04 Feb 3.5 18:00:19 10° S 18:05:22 66° WSW 18:10:28 10° NNW visible
04 Feb 6.4 19:44:14 10° W 19:45:25 11° W 19:46:37 10° WNW visible
05 Feb 5.2 06:03:37 10° NNE 06:08:04 29° E 06:12:29 10° SSE visible
05 Feb 5.6 19:04:14 10° SW 19:08:05 22° W 19:11:58 10° NW visible
